COSMOS 2251 DEB, 33917

Orbit data source: Space-Track

COSMOS 2251 DEB, 33917 is space debris in LEO originally from a launch on Wed, 16 Jun 1993 UTC launched from the Plesetsk Missile And Space Complex (PKMTR). The debris from Iridium 33, an American commercial communications satellite, has been tracked extensively since its accidental collision with the defunct Russian satellite Cosmos 2251 in 2009. This event, occurring at high speed in low Earth orbit (LEO), generated thousands of pieces of space debris, significantly increasing the risk of further collisions. The Iridium 33 debris cloud has impacted space traffic management and orbital debris mitigation strategies, making it a subject of ongoing study in space situational awareness.

Loading next visibility...
Identifier
33917, 1993-036DW
Orbit
LEO
Country
Flag of CISCIS
Related business
Manufacturer
Unknown
Mission
Spacecraft
Bus & Motor
Unknown
Mass
Unknown
Launch date (UTC)
1993-06-16 (33 years ago)
Launch vehicle
Unknown
Launch site
Plesetsk Missile And Space Complex (PKMTR)
Object type
Payload
Rocket body
Debris
Shape & HBR
Unknown shape, 0.1 m
Radar Cross Section
Small (<0.1 m²)

Expand to show TLE details & history
Last TLE update: 7 hours ago

TLE from 7 hours ago
0 COSMOS 2251 DEB
1 33917U 93036DW  26034.46054114  .00001439  00000-0  11448-2 0  9991
2 33917  74.1068  35.9375 0328712 124.8584 238.3914 13.69543133844552
Epoch: 2026-02-03T11:03Z
TLE epoch observation values (Epoch: 2026-02-03T11:03:10.754Z)
Latitude
-0.00003°
Longitude
96.50153°
Altitude
1,136.542 km
Speed
7.219 km/s
True Right ascension
02h 23m 44s
True Declination
0° 00' 00"
Sunlit
Object was in daylight at epoch
Visualization orbit readout
Latitude
Unknown
Longitude
Unknown
Altitude
Unknown
Speed
Unknown
Apparent Right ascension
Unknown
Apparent Declination
Unknown
Sunlit
N/A
Visualization observer readout
Local Sidereal Time
19:37:32
Azimuth
Unknown
Elevation
Unknown
Doppler factor
Unknown
Orbital elements
Apogee altitude
1,241.392 km
Perigee altitude
756.408 km
Semi-major axis
7,377.037 km
Eccentricity
0.03287
Inclination
74.1068°
RAAN
35.9375°
Arg. of periapsis
124.8584°
True anomaly
235.25269°
Mean anomaly
238.3914°
Eccentric anomaly
236.81518°
Mean motion
3.42547 °/min
Orbital period
105.1 mins
BSTAR
0.0011448
Loading maneuver chart data...
Computing Atmospheric mass density...

Documentation

Showing up to 5 results
|